Lapse_Rate
2.9 3.3 3.2 3.4 3.4 2.5 2.0 2.3 2.9 3.3 4.0 3.3 2.3 2.7 3.6 3.9 3.8 3.9 4.0 4.1 4.1 4.0 4.5 4.0 4.4 4.1 4.1 4.2 3.5 3.8 3.7 2.9 3.5 3.5 2.4 2.1 2.0 2.5 3.5 3.8 4.4 4.6 4.7
3.5 3.4 3.6 3.7 3.8 2.8 2.4 3.1 3.5 4.0 4.3 4.1 3.4 3.0 3.4 3.4 3.8 4.0 4.3 3.8 4.2 4.4 4.6 4.6 4.7 4.9 4.1 3.9 3.7 4.2 4.3 3.6 3.6 3.8 3.2 2.5 3.2 2.9 2.7 3.4 4.0 5.0 4.9
4.2 3.9 3.6 3.5 3.5 3.5 3.6 3.8 4.5 4.5 4.5 4.7 4.3 4.1 4.1 4.4 4.4 4.9 5.0 4.5 4.4 3.8 3.6 4.1 4.6 4.5 4.5 4.0 3.9 3.9 3.5 3.0 3.2 2.9 3.2 3.0 2.6 2.4 3.2 3.6 4.4 4.1 4.9
5.5 4.6 4.0 3.4 3.8 3.8 3.8 4.2 4.4 3.8 4.1 4.0 3.4 2.7 2.4 2.6 3.3 3.9 4.5 4.9 4.8 4.6 4.5 4.4 4.4 4.7 4.1 3.9 3.7 3.9 3.9 3.2 3.1 2.8 2.9 3.1 3.2 3.3 2.9 3.3 3.6 2.8 3.6
4.2 4.3 3.9 3.4 3.7 3.7 3.7 4.1 3.8 4.1 3.9 2.8 2.0 1.7 1.8 2.1 2.2 2.2 2.9 4.0 4.8 4.7 4.4 3.7 3.1 3.5 3.1 2.7 2.9 2.5 2.9 3.2 3.4 3.4 3.3 3.3 3.1 2.7 3.2 2.8 3.0 2.5 2.9
3.1 3.4 2.8 3.3 3.7 3.7 2.9 3.1 3.1 3.0 2.1 1.5 1.3 1.4 1.5 2.3 1.6 2.6 2.7 3.0 3.5 3.1 2.7 1.9 2.0 2.5 2.5 2.4 2.4 2.7 3.1 3.3 3.4 3.2 3.3 3.8 3.7 3.5 3.0 3.1 3.3 3.4 4.1
2.9 2.6 2.7 3.2 3.0 2.8 2.2 2.5 2.3 2.5 2.1 1.3 0.8 0.6 -0.0 -0.4 0.3 1.3 2.8 2.5 3.2 2.4 2.3 2.8 3.8 2.8 2.0 2.1 2.2 2.4 2.4 2.8 2.7 2.1 2.6 2.7 3.0 2.9 2.7 2.7 2.9 2.8 2.7
2.5 2.7 2.8 2.9 2.3 2.2 2.4 2.2 2.0 1.7 1.5 0.9 0.2 -0.3 -1.1 -1.4 -0.9 -0.8 1.2 2.0 2.9 2.9 3.2 2.7 1.8 1.1 1.3 2.2 2.1 2.5 2.6 3.1 2.5 3.3 2.8 3.1 3.0 2.3 3.2 3.2 3.1 2.9 2.4
2.8 3.0 2.4 2.3 2.0 2.4 2.6 2.1 1.4 1.3 1.8 1.3 0.6 0.3 -0.3 -1.5 -1.3 -0.8 -0.0 1.4 2.5 2.1 2.3 2.2 1.3 0.7 1.2 1.5 1.1 1.2 1.4 2.1 3.4 3.7 4.1 5.0 5.2 4.6 3.7 2.7 3.5 4.1 4.2
2.9 2.6 2.1 2.3 2.4 1.9 2.6 2.6 1.9 1.5 1.5 1.3 0.8 0.5 1.2 -0.1 -0.6 -0.6 -0.1 0.7 1.8 0.7 -0.1 0.8 2.0 0.7 0.4 0.0 -0.6 -0.1 1.1 1.0 0.7 1.7 2.6 3.1 4.1 3.8 4.2 3.6 3.1 4.0 3.9
2.7 2.2 2.0 1.9 2.4 3.2 2.2 2.4 1.8 1.5 1.3 1.1 1.0 1.3 1.2 0.5 0.1 0.1 0.3 0.5 1.6 1.4 0.5 0.4 0.4 1.3 0.8 -0.9 -1.5 -0.8 0.2 -0.5 0.5 1.0 1.9 2.6 2.7 2.7 2.8 3.5 3.7 3.2 3.5
1.8 1.3 1.2 1.7 1.5 1.7 2.2 2.1 1.7 2.0 1.7 1.6 2.1 2.4 2.0 1.9 1.1 0.7 -0.3 -0.4 1.4 1.8 0.9 0.4 0.3 0.9 0.3 -0.3 -0.6 -0.1 0.1 0.8 0.2 1.4 2.0 2.2 2.7 3.2 3.5 3.4 4.2 4.2 4.2
1.0 2.8 1.4 1.1 0.8 0.5 0.9 1.7 1.9 2.3 2.5 2.1 2.3 2.8 3.0 1.7 1.9 1.2 0.7 -0.2 0.9 1.8 1.0 1.3 0.8 -0.4 -0.3 1.1 1.3 1.9 2.5 2.4 2.7 2.7 2.8 3.0 2.8 2.8 3.0 3.7 4.6 4.9 5.0
1.5 2.0 1.1 1.5 0.8 1.4 2.0 2.7 2.3 1.6 1.6 2.2 2.6 2.9 3.2 3.5 2.2 2.1 1.5 0.8 1.3 1.9 2.1 1.4 1.0 1.2 1.2 1.5 2.4 2.6 2.2 2.2 3.3 3.3 3.3 3.1 2.7 3.3 3.9 3.3 3.3 3.0 3.5
3.5 0.9 2.4 2.4 2.3 2.3 2.1 1.3 2.0 1.9 1.9 2.3 2.2 2.4 2.3 4.0 4.4 3.0 2.3 2.4 2.0 0.7 -0.3 1.0 2.2 2.1 2.1 2.8 2.6 2.5 2.6 2.7 3.7 3.1 3.5 3.7 3.6 3.6 3.7 3.0 3.2 2.9 3.7
1.1 0.7 2.5 2.7 2.9 2.7 1.1 -0.6 -2.9 -2.0 -1.6 -0.6 0.6 2.0 1.9 0.9 -0.1 -0.6 -0.6 -1.1 -1.2 -2.1 0.7 1.2 2.1 2.7 2.7 3.1 3.4 3.2 2.8 3.8 3.2 3.9 3.6 3.7 4.1 4.0 3.9 3.4 3.2 3.2 3.5
2.2 1.9 3.1 3.3 3.7 3.0 2.5 1.2 -0.1 -1.5 -3.0 -2.6 -1.3 -2.2 -1.3 -1.1 -2.3 -2.7 -3.2 -2.7 -2.2 -1.1 0.7 0.2 1.0 2.3 2.8 2.6 2.7 3.1 3.6 2.9 3.0 3.1 3.4 3.5 3.6 3.7 3.9 3.6 3.4 3.5 3.6
2.9 1.7 3.0 3.1 3.4 3.8 2.5 1.4 0.7 0.7 0.9 0.5 -1.0 -1.3 -2.7 -3.2 -3.2 -3.1 -2.8 -2.1 -1.3 -1.4 -0.7 -0.1 1.6 2.3 2.7 2.9 2.7 2.7 2.4 2.3 2.7 3.2 3.6 3.6 3.4 3.9 4.1 3.8 3.6 3.8 3.4
4.5 3.6 3.6 3.4 3.6 3.6 4.0 3.3 2.1 1.6 1.3 1.2 -0.4 -0.5 -2.8 -3.0 -3.2 -2.9 -2.4 1.2 1.4 1.0 -0.4 -0.2 0.9 2.0 2.3 2.7 2.7 2.6 2.6 2.6 2.9 3.1 3.2 3.5 3.3 3.5 3.8 3.3 3.3 3.9 3.8
3.9 3.2 3.5 3.6 3.5 3.9 4.0 4.2 3.8 3.4 2.9 2.7 1.7 0.7 -2.5 -2.5 -1.8 -1.7 -1.7 -0.1 -0.2 -0.3 -0.1 0.4 1.0 1.8 1.9 2.1 2.1 2.2 2.3 2.6 2.8 2.7 2.8 2.8 2.8 3.1 3.5 3.8 3.6 4.1 3.6
2.4 2.9 3.1 3.8 4.1 4.1 4.3 4.5 3.8 3.4 2.9 2.3 1.4 0.6 -1.1 -0.6 -0.3 -1.0 -0.6 -1.4 -1.0 -0.7 -0.4 -0.3 1.4 1.4 1.3 1.7 1.7 2.0 2.7 3.0 2.6 2.8 2.9 2.6 2.4 3.1 3.2 3.3 3.4 3.4 3.5
3.7 3.1 3.1 3.8 3.3 4.1 4.0 3.9 4.1 4.0 3.3 2.7 2.4 0.8 -2.8 0.1 -0.5 -0.4 -0.1 0.2 0.0 0.2 0.3 0.5 1.4 1.6 1.7 2.0 2.0 2.5 2.7 3.1 3.2 3.0 2.5 2.5 2.4 2.8 2.7 3.5 3.6 3.6 3.5
3.4 3.2 3.7 3.6 3.5 3.3 3.9 4.0 4.1 4.5 4.1 4.0 3.7 2.5 -1.7 -0.5 0.5 1.0 1.0 1.5 0.9 1.3 1.6 1.2 1.9 1.8 1.8 2.2 2.9 3.0 3.2 3.2 3.5 2.8 3.0 3.2 2.8 2.3 2.5 3.1 3.6 3.5 3.5
4.4 4.5 3.9 3.7 3.8 4.1 4.4 4.1 3.7 2.5 4.2 3.4 3.5 3.6 0.7 0.5 0.8 1.1 1.3 2.0 1.8 2.1 2.6 1.8 2.4 3.0 2.7 2.4 3.6 4.0 4.1 4.8 5.0 3.9 3.4 3.9 3.9 2.5 2.7 3.0 3.3 3.6 3.5
4.4 4.0 2.9 2.9 3.2 2.8 3.7 4.0 3.1 4.2 3.7 2.7 1.9 1.0 0.4 0.5 1.1 1.9 2.2 1.7 2.0 3.2 3.0 2.0 2.3 2.8 3.2 3.6 3.6 4.4 5.2 5.5 5.8 5.7 4.6 4.1 3.4 3.2 3.0 2.9 3.6 3.7 3.8
3.9 3.6 2.6 1.8 1.7 1.8 2.8 3.5 2.5 2.3 1.9 2.3 2.4 1.8 1.4 1.7 2.1 2.9 3.5 3.0 3.3 3.7 3.3 2.7 2.7 3.2 3.5 4.2 5.1 5.6 5.3 5.0 4.8 5.5 4.7 2.5 2.9 2.5 2.5 3.4 4.0 3.6 4.4
Wind_Speed
10 10 8 8 7 6 6 6 6 6 5 7 6 6 7 6 4 4 6 6 6 5 4 5 6 4 2 2 1 1 2 3 4 2 1 1 1 3 3 8 11 12 15
12 10 10 8 6 7 6 6 6 6 5 6 7 7 6 8 7 7 9 6 6 5 5 4 3 2 4 3 3 3 2 1 2 3 0 1 3 2 4 5 4 9 11
9 9 7 7 7 7 7 6 6 5 5 4 6 5 5 4 5 5 5 5 5 6 6 6 5 4 2 2 1 2 3 2 1 1 1 1 0 0 1 1 1 0 5
10 10 9 8 9 8 8 7 6 5 7 6 6 7 6 6 5 4 3 4 4 3 3 3 3 3 4 3 3 2 2 3 2 2 1 1 1 1 2 1 2 1 2
10 9 10 7 6 7 7 7 6 6 6 7 8 7 6 6 4 5 5 5 5 5 6 6 6 9 11 8 3 3 3 2 3 2 1 1 2 3 3 2 1 2 2
9 9 7 8 8 8 7 6 7 6 7 7 7 7 6 4 6 8 4 3 5 6 7 6 6 8 8 9 8 7 3 2 2 2 2 2 1 1 2 1 1 2 2
11 9 8 9 9 10 9 7 7 7 6 6 6 6 6 5 8 9 7 4 5 6 7 6 6 4 6 5 6 7 7 3 2 3 3 3 3 4 3 2 1 1 2
10 10 9 11 10 8 8 8 7 5 6 6 5 5 6 3 7 9 7 4 5 5 6 6 6 5 4 4 3 3 4 3 5 3 4 3 3 5 4 4 3 2 2
11 11 10 12 12 11 10 9 7 7 6 5 5 5 5 3 5 8 6 5 5 5 4 4 6 5 4 4 3 1 2 1 6 9 2 4 4 4 5 4 2 2 2
14 13 12 12 12 12 10 9 6 6 6 6 6 5 6 5 2 6 5 4 5 4 4 4 5 5 5 5 3 2 2 1 4 5 5 4 5 8 8 4 4 3 1
14 13 13 14 13 13 10 6 6 7 8 6 6 5 5 4 2 4 7 4 4 4 4 3 1 3 3 4 4 2 2 1 2 2 3 2 4 4 3 4 4 3 2
10 10 5 6 8 8 12 6 7 8 9 7 7 5 4 4 4 2 7 8 2 3 5 3 3 4 2 2 1 2 1 0 1 2 3 3 3 1 1 2 1 1 3
13 4 7 9 8 9 11 9 7 7 8 7 5 4 3 3 3 4 9 9 4 3 3 4 5 5 4 3 3 3 0 1 3 3 2 1 1 1 1 1 0 3 4
14 14 10 11 11 8 6 6 7 6 5 5 4 4 3 3 4 3 2 4 6 3 3 3 4 5 4 3 2 2 1 1 2 2 2 1 0 0 1 1 2 3 3
7 7 8 8 10 9 6 4 5 2 5 6 4 4 4 3 5 6 6 4 4 4 4 1 1 2 1 2 2 2 1 2 2 1 1 2 2 1 0 1 1 1 2
9 8 7 7 6 6 7 5 9 8 5 3 6 5 3 5 10 10 8 6 6 7 2 2 2 3 3 4 4 3 2 3 2 1 1 2 2 2 0 1 1 2 2
11 10 8 7 8 7 5 5 6 4 7 7 2 8 9 9 12 12 11 9 8 4 2 3 3 3 3 4 4 4 4 4 3 2 2 2 2 2 2 1 1 1 1
6 11 9 8 7 7 6 5 4 4 4 2 4 3 5 10 11 11 10 8 2 3 2 3 4 3 4 5 4 4 4 3 3 3 2 2 2 2 1 2 2 2 2
10 6 7 7 7 9 8 7 6 5 5 3 2 2 5 5 3 4 5 3 4 4 4 4 4 4 4 4 4 4 5 5 4 3 3 2 3 2 1 2 3 3 2
4 8 7 7 7 7 7 7 7 6 6 6 6 6 5 4 4 5 5 4 4 4 4 5 4 4 5 5 5 5 5 4 4 4 3 4 4 3 3 3 2 2 1
6 8 12 6 6 6 6 7 6 6 6 7 7 8 15 8 7 5 6 6 5 5 5 5 5 4 5 5 5 5 5 5 5 5 4 4 4 4 3 3 3 2 1
6 6 6 6 6 6 5 5 6 6 6 7 7 7 17 9 6 6 6 7 6 6 4 5 5 5 5 6 6 5 5 5 5 5 5 5 5 5 4 3 3 3 2
4 4 3 2 4 6 6 6 7 8 8 9 9 6 8 10 9 8 8 8 6 6 5 5 5 5 5 6 9 6 6 6 6 5 5 6 5 5 5 4 4 3 3
4 2 4 4 5 6 6 6 7 10 9 9 9 9 8 9 9 10 8 7 6 6 7 6 7 8 7 6 11 14 13 15 13 10 8 7 7 6 4 3 4 5 4
3 2 1 4 4 5 5 6 5 4 5 5 5 5 5 6 6 6 6 5 6 7 8 7 7 9 11 11 11 15 19 21 18 18 12 8 9 8 6 4 5 4 5
3 2 4 4 4 3 2 2 4 4 4 3 3 5 5 4 5 5 5 4 4 5 5 4 5 12 15 16 18 21 20 20 20 22 17 6 6 6 6 7 9 4 5
Wind_Direction
184 196 199 202 208 182 188 203 211 233 185 161 175 155 158 164 217 286 243 180 192 204 210 207 222 219 199 189 156 308 127 170 197 266 298 256 133 191 233 224 235 234 225
186 186 200 200 176 171 184 197 212 206 182 159 170 190 185 182 189 221 229 179 185 205 218 211 227 194 203 195 168 197 188 199 144 223 315 247 170 164 228 229 249 238 223
181 184 181 182 168 174 179 197 199 192 177 158 153 162 156 166 157 184 201 176 179 197 196 188 207 216 197 149 157 180 204 188 141 126 282 288 42 204 50 352 291 29 263
180 171 167 171 176 170 171 155 150 140 129 115 110 102 94 97 89 90 137 152 158 145 140 147 136 131 122 125 110 92 156 151 139 171 245 273 36 9 77 77 329 11 303
171 168 174 160 153 150 143 143 143 138 128 120 109 93 87 67 44 61 68 79 101 105 103 88 77 80 73 68 93 54 56 80 101 107 60 26 18 33 68 5 348 356 358
163 170 157 147 152 152 137 133 121 114 104 111 107 111 96 82 64 54 61 68 116 107 109 90 83 80 72 60 56 63 81 112 100 117 146 144 211 93 38 39 68 37 318
167 157 157 150 151 155 147 140 139 134 122 117 118 117 108 102 70 54 45 44 111 119 129 131 111 89 76 63 26 25 25 47 172 156 156 186 167 170 148 150 138 182 242
157 154 151 155 150 137 143 147 142 127 124 131 123 114 111 65 58 61 64 45 110 123 137 137 124 110 68 74 60 28 21 10 9 217 193 211 180 166 163 172 179 229 308
157 159 164 158 150 152 157 155 147 131 127 136 133 132 121 94 77 63 84 69 89 78 82 108 118 115 89 65 86 57 31 29 348 23 60 190 164 191 174 116 74 66 316
164 170 164 163 159 170 158 152 144 133 125 136 134 143 144 136 111 96 111 97 104 105 78 69 97 124 111 78 111 112 100 29 356 353 356 16 66 85 121 125 147 134 177
161 168 176 182 156 155 150 142 144 128 124 128 142 152 152 146 117 116 108 102 131 150 158 172 162 141 131 123 129 142 170 291 7 348 332 75 101 97 97 101 136 140 148
159 136 128 141 143 142 139 142 123 126 137 142 143 159 167 156 147 191 110 121 183 149 169 180 180 187 185 168 115 220 294 325 195 135 94 88 98 91 31 38 354 168 211
120 99 197 142 140 140 137 137 132 146 152 161 163 170 168 167 144 188 129 107 111 122 167 188 174 192 256 291 272 270 355 49 104 103 120 181 192 181 47 58 82 54 43
165 173 157 149 135 126 126 143 157 164 151 162 173 180 189 166 188 165 146 127 147 165 141 167 180 197 224 267 331 350 83 164 136 154 171 209 209 58 74 34 55 14 57
206 153 149 143 139 135 123 149 170 164 168 171 183 171 166 191 219 173 166 195 184 198 140 177 226 215 173 287 307 301 315 141 112 144 130 125 103 68 340 11 88 62 90
171 159 153 148 141 142 148 130 51 85 98 103 137 158 217 267 158 163 162 159 156 166 94 174 218 212 226 227 228 224 204 206 165 130 113 133 155 163 112 10 95 93 132
164 156 159 163 155 156 167 166 146 65 89 80 222 231 200 184 167 153 151 163 169 133 198 193 206 230 224 203 176 170 195 206 167 152 141 188 184 142 114 100 122 145 206
186 163 165 172 162 154 155 162 146 162 171 152 74 122 157 156 155 161 169 136 153 235 184 190 216 236 210 203 169 179 186 171 190 172 149 168 185 150 136 157 188 173 197
185 157 164 162 168 159 159 163 170 173 181 161 124 87 130 125 120 181 193 202 205 213 205 211 216 227 232 216 183 180 171 183 185 179 187 172 187 164 152 175 209 188 160
156 176 170 169 164 158 164 172 170 180 185 187 189 195 150 129 188 203 211 210 217 224 211 219 225 231 220 205 188 181 178 177 185 197 194 188 188 190 182 194 206 170 188
166 177 159 154 168 179 180 186 180 182 195 198 206 192 183 189 205 201 210 215 221 225 222 223 234 231 214 195 189 183 190 197 200 202 197 210 191 189 193 185 199 193 210
169 174 184 169 170 185 188 179 188 203 204 211 217 197 181 200 201 206 212 224 221 226 216 209 223 222 194 184 186 187 196 206 211 209 206 203 200 199 182 185 197 202 199
137 137 159 174 182 180 192 201 207 213 208 215 214 191 177 203 210 211 212 219 212 216 218 203 215 217 213 206 198 194 194 208 215 189 201 193 197 186 183 191 196 208 209
106 132 229 207 201 208 220 231 222 212 209 212 212 203 192 199 206 210 210 211 210 219 220 209 210 212 209 205 213 218 219 223 212 212 193 188 186 193 181 188 189 206 210
60 61 19 253 214 206 210 230 196 180 182 170 171 174 178 183 203 209 201 204 216 218 223 208 206 213 219 215 215 223 225 219 205 200 185 184 182 182 183 189 195 206 201
103 56 75 63 57 57 117 97 110 131 116 108 159 173 172 184 198 200 215 205 197 211 228 221 222 222 220 217 220 216 215 207 201 200 189 180 187 194 188 188 201 199 212